Temperature
12 12 12 12 12 11 11 11 11 11 11 11 12 12 12 11 11 11 11 11 10 10 10 10 10 10 10 10 9 9 10 10 10 10 10 10 11 11 11 11 11 11 11
12 12 12 12 11 11 11 11 11 12 12 12 11 11 11 11 10 10 10 9 9 9 9 9 9 9 9 9 9 9 9 9 10 10 10 10 10 10 11 11 11 11 11
12 12 12 12 12 11 11 11 12 11 11 11 11 10 10 10 10 9 9 9 8 8 9 9 9 9 9 9 9 9 9 9 10 10 10 10 10 10 10 10 10 10 10
12 12 12 12 11 11 11 11 11 11 11 10 10 10 9 9 9 9 8 8 8 8 9 9 9 9 9 9 9 9 9 9 9 9 9 9 9 9 9 9 9 9 9
12 12 12 12 11 11 11 11 11 10 10 9 9 9 9 9 9 8 8 8 8 8 8 8 8 8 8 8 8 8 8 8 8 8 8 8 8 8 7 7 7 7 7
12 12 12 11 11 11 11 10 10 9 8 8 8 8 9 9 8 8 7 7 7 7 7 7 7 7 7 7 7 7 7 7 7 6 6 6 6 6 5 5 5 5 5
12 11 11 11 11 10 10 10 9 8 8 7 7 8 8 8 7 7 7 7 7 7 6 6 6 6 6 6 6 6 6 6 5 4 3 3 3 3 3 3 3 3 4
11 11 11 11 10 10 9 9 8 7 6 6 5 5 5 6 6 6 6 5 5 5 5 5 5 5 5 5 5 4 4 4 3 1 1 1 1 1 1 2 2 2 3
11 11 11 10 10 9 9 8 7 6 5 5 4 3 3 2 2 3 4 3 3 3 4 4 4 4 4 4 3 3 3 2 0 -1 -1 -1 -1 -0 0 1 1 2 2
11 11 10 10 9 9 8 7 6 5 4 4 3 3 2 1 0 0 2 2 2 2 3 3 3 3 3 2 2 1 0 -1 -2 -2 -2 -2 -1 -1 -0 0 1 1 1
10 10 10 9 8 8 7 6 5 4 4 3 3 2 2 1 -0 -2 -2 -0 1 1 2 2 2 2 2 1 0 -1 -2 -4 -4 -3 -3 -3 -2 -2 -1 -1 -0 0 0
10 9 9 8 8 7 6 5 4 4 3 3 2 2 1 -0 -1 -3 -4 -4 -3 -1 -0 0 0 0 -0 -1 -1 -2 -3 -4 -5 -4 -4 -3 -3 -3 -2 -2 -1 -1 -1
9 9 8 7 7 6 5 4 4 3 3 2 2 1 1 -1 -2 -3 -4 -4 -5 -4 -3 -3 -3 -3 -3 -3 -4 -4 -4 -5 -5 -5 -5 -4 -4 -4 -3 -3 -3 -3 -2
8 8 7 7 6 5 4 3 3 2 2 2 1 1 0 -1 -2 -3 -4 -5 -6 -6 -6 -5 -5 -5 -6 -7 -7 -7 -6 -6 -6 -6 -6 -5 -5 -5 -5 -4 -4 -4 -4
8 7 6 6 5 4 3 3 2 2 2 1 1 0 -0 -1 -3 -4 -5 -6 -7 -7 -6 -7 -7 -7 -7 -8 -8 -8 -8 -8 -7 -7 -6 -6 -6 -6 -6 -5 -5 -5 -5
7 6 6 5 4 3 2 2 2 2 1 1 1 -0 -1 -2 -4 -5 -6 -6 -7 -8 -8 -7 -7 -7 -8 -8 -8 -8 -8 -8 -8 -7 -7 -7 -7 -7 -6 -6 -6 -6 -6
6 6 5 4 3 2 2 2 1 1 1 0 -0 -1 -2 -4 -4 -5 -6 -7 -7 -8 -9 -8 -8 -8 -8 -8 -8 -8 -8 -8 -8 -8 -8 -8 -7 -7 -7 -7 -7 -7 -6
5 5 4 3 2 2 2 1 1 1 0 -0 -1 -2 -3 -5 -5 -6 -7 -7 -8 -8 -9 -9 -9 -8 -8 -8 -8 -8 -9 -9 -9 -9 -9 -8 -8 -8 -8 -8 -8 -7 -7
5 4 3 2 2 2 1 1 0 0 -0 -1 -2 -4 -5 -6 -6 -7 -7 -8 -8 -9 -9 -9 -9 -9 -8 -8 -9 -9 -9 -9 -9 -10 -9 -9 -9 -9 -9 -8 -8 -8 -8
4 3 2 2 1 1 1 0 -0 -1 -1 -2 -4 -5 -6 -6 -7 -8 -8 -9 -9 -9 -9 -9 -9 -8 -9 -9 -9 -9 -10 -10 -10 -10 -10 -10 -10 -9 -9 -9 -9 -9 -9
3 2 1 1 1 1 0 -1 -1 -2 -3 -4 -5 -6 -7 -7 -8 -9 -9 -9 -9 -9 -9 -8 -8 -9 -9 -9 -10 -10 -10 -10 -10 -10 -10 -10 -10 -10 -10 -10 -10 -9 -9
2 1 1 1 0 -0 -1 -1 -3 -4 -5 -5 -6 -7 -7 -8 -8 -9 -9 -9 -9 -8 -8 -9 -9 -10 -10 -10 -10 -10 -10 -10 -10 -10 -11 -11 -11 -11 -10 -10 -10 -10 -10
1 1 0 0 -0 -1 -1 -2 -3 -5 -6 -6 -7 -8 -8 -8 -9 -9 -9 -9 -9 -9 -9 -10 -10 -10 -10 -10 -10 -10 -10 -11 -11 -11 -11 -11 -11 -11 -10 -10 -10 -10 -9
1 0 -0 -1 -1 -2 -2 -3 -4 -6 -6 -7 -8 -8 -9 -9 -9 -9 -9 -9 -9 -9 -10 -10 -10 -10 -10 -10 -10 -11 -11 -11 -11 -11 -11 -11 -11 -11 -10 -9 -9 -9 -9
0 -0 -1 -1 -2 -2 -3 -4 -6 -7 -8 -8 -8 -9 -9 -10 -10 -9 -9 -9 -10 -9 -10 -10 -10 -10 -10 -10 -10 -11 -11 -12 -12 -11 -11 -11 -11 -11 -10 -9 -8 -8 -9
-1 -1 -1 -2 -3 -3 -4 -5 -7 -8 -8 -9 -9 -9 -10 -10 -10 -9 -9 -10 -10 -10 -10 -10 -10 -9 -8 -9 -9 -10 -11 -12 -12 -12 -10 -11 -11 -12 -11 -9 -8 -8 -7
Wind_Speed
4 4 5 7 8 9 8 6 6 7 7 7 8 8 7 8 9 9 11 15 18 18 18 18 18 17 17 16 16 16 16 16 16 15 15 15 14 14 14 14 14 14 14
7 5 5 6 7 8 8 7 6 5 4 4 5 6 6 7 8 9 11 13 16 18 18 18 18 17 17 16 15 15 16 16 16 16 16 16 16 15 15 16 16 15 15
11 8 5 5 6 8 9 7 6 6 5 5 6 5 5 5 6 7 9 11 12 16 17 17 18 17 16 16 16 16 16 16 17 17 16 17 17 16 16 17 17 17 17
13 10 6 6 7 8 7 5 5 5 6 6 6 4 3 3 3 5 6 8 9 11 14 17 18 18 16 16 16 17 18 18 18 18 18 18 18 18 18 18 19 19 19
14 12 7 6 9 7 5 5 6 5 5 7 7 5 4 3 1 3 4 5 6 9 12 15 17 18 17 17 18 19 20 20 19 19 19 19 19 20 20 20 20 20 21
14 13 9 8 8 6 6 5 6 6 4 5 6 7 4 3 2 1 2 2 3 8 13 13 14 16 17 18 20 21 21 21 21 20 20 20 21 21 22 22 22 22 22
14 12 8 6 6 7 6 5 4 6 6 5 5 6 5 3 2 2 1 1 2 8 13 14 15 16 13 18 21 22 22 22 21 21 22 23 23 23 23 24 24 24 24
13 12 8 7 6 6 7 7 5 3 4 5 4 4 5 6 5 4 4 3 4 6 9 14 16 15 15 15 18 23 23 21 22 23 24 25 25 26 26 26 26 26 26
14 13 11 7 6 6 6 6 6 5 4 4 4 4 3 4 5 5 5 4 5 5 6 9 12 15 18 17 17 19 21 22 23 24 26 27 28 28 28 28 28 28 28
12 13 12 9 6 6 6 6 5 4 3 3 3 2 2 3 4 6 4 4 5 7 8 9 10 16 17 16 17 21 22 23 24 26 28 29 29 30 30 30 30 30 30
10 12 11 9 6 5 6 6 5 4 2 1 1 2 2 2 3 4 7 6 7 5 6 9 8 10 14 15 14 17 22 25 27 29 30 30 31 31 31 31 31 31 31
6 8 10 8 7 5 5 4 4 3 2 1 1 2 2 2 3 4 6 12 12 7 9 9 8 6 11 13 15 23 27 28 30 30 31 32 33 33 33 32 32 32 32
5 6 6 5 4 5 5 4 3 2 1 1 2 2 3 4 3 4 6 11 13 8 6 5 5 6 11 12 15 27 28 29 30 32 33 34 34 34 34 34 34 34 34
6 6 6 6 6 5 4 3 2 2 2 3 4 4 4 5 4 4 4 9 14 8 5 7 5 6 7 12 20 27 23 29 32 34 35 36 35 35 35 35 35 35 35
7 6 6 5 5 4 3 2 2 3 3 3 5 5 4 5 5 5 5 5 7 13 16 6 4 4 7 13 19 20 19 28 34 35 36 35 35 36 36 36 36 36 36
7 7 6 5 4 3 3 2 3 3 4 4 4 6 6 5 5 5 6 6 8 12 16 9 11 11 10 14 23 22 21 32 33 33 34 35 36 36 37 38 38 38 38
7 7 5 4 3 3 3 3 4 4 5 6 6 6 8 8 6 6 6 7 9 10 17 18 14 12 12 13 14 15 18 16 18 29 33 35 37 38 38 38 37 37 36
7 6 5 4 3 3 3 3 5 6 6 7 8 7 8 7 8 7 7 9 10 10 14 20 18 15 15 14 14 12 15 15 12 27 33 35 36 36 36 36 36 36 36
7 6 5 4 3 4 4 4 5 6 7 7 7 7 8 8 9 9 10 10 10 12 11 16 19 17 15 13 14 14 14 12 15 22 28 30 32 34 35 36 36 36 36
7 5 4 3 3 4 4 6 6 6 6 6 6 7 8 9 11 11 11 10 10 11 12 15 16 16 15 12 12 14 16 11 14 16 22 25 29 33 34 35 35 36 36
6 4 3 3 4 4 5 7 6 5 5 5 7 8 9 14 16 15 14 12 12 13 14 15 16 16 16 15 16 15 18 18 15 13 15 15 15 15 18 26 30 33 34
4 4 4 4 5 5 11 14 11 5 4 6 9 9 10 12 16 22 25 25 23 19 17 15 15 18 19 17 17 18 19 20 19 8 11 17 14 16 15 13 26 33 34
3 3 4 4 5 8 13 15 16 8 5 7 9 10 11 13 18 13 20 25 21 23 24 18 18 18 19 19 20 21 19 20 20 16 16 20 15 17 16 18 31 34 35
3 3 4 5 6 8 14 16 18 8 7 9 10 10 12 12 14 18 17 15 12 13 18 15 13 16 17 17 17 19 20 19 19 14 13 18 17 18 18 16 29 33 34
3 3 3 5 6 9 14 17 18 7 7 9 10 10 12 11 22 27 18 15 15 14 20 23 24 25 28 28 23 16 15 15 18 17 10 11 14 17 18 17 20 27 28
2 4 5 5 6 8 13 17 19 6 7 8 7 8 15 20 25 27 16 12 15 17 16 16 18 20 18 19 23 15 13 15 16 13 6 6 12 13 10 8 8 11 17
Wind_Direction
123 103 85 75 68 69 70 68 63 55 45 40 39 38 26 21 31 41 40 47 49 44 42 35 29 23 20 17 18 19 16 12 7 1 356 351 345 339 333 327 323 321 324
126 108 90 77 71 71 74 73 65 55 44 33 31 33 31 27 38 47 49 50 51 45 39 32 25 18 13 9 8 7 5 359 353 347 342 337 332 326 321 317 311 308 307
121 110 98 84 76 77 74 68 58 48 38 23 14 18 30 28 42 50 55 57 56 46 38 30 20 12 6 1 357 352 349 345 341 335 331 326 322 317 313 309 304 301 297
119 110 100 87 80 75 69 62 41 39 27 12 351 346 16 12 36 55 59 63 66 53 35 25 16 6 358 352 347 342 337 333 330 326 322 319 315 312 307 303 300 297 294
115 106 98 92 86 72 53 59 49 43 26 1 337 329 359 347 346 48 52 60 63 50 32 20 11 359 349 342 338 334 329 325 321 318 315 314 311 307 303 300 296 293 290
109 104 98 91 85 73 56 53 56 43 34 356 334 325 328 332 321 27 38 43 44 32 23 13 0 346 338 333 330 327 323 319 315 312 311 310 307 304 300 297 294 291 289
107 104 101 88 80 79 68 55 57 39 22 5 0 335 331 345 331 280 346 326 9 15 13 360 342 328 320 323 322 318 317 313 310 309 308 306 303 300 297 294 291 288 286
105 103 101 96 89 88 69 55 53 50 22 26 30 358 344 338 341 337 342 345 6 5 360 339 322 312 309 307 307 312 311 306 306 306 305 304 301 297 294 291 288 285 283
100 102 99 96 87 86 79 66 60 66 29 10 39 52 8 310 309 311 315 329 347 349 328 312 306 306 304 301 299 303 303 302 302 302 303 302 299 296 292 288 285 283 281
98 97 95 93 86 80 77 68 68 69 67 22 355 22 235 239 285 308 300 302 318 315 299 307 302 296 293 292 294 302 302 299 298 301 301 300 297 294 290 287 285 283 281
90 92 91 88 81 78 77 69 66 63 75 90 332 313 306 285 245 265 293 304 303 279 286 290 288 287 288 288 287 294 301 302 301 300 299 298 296 294 291 289 287 286 284
85 83 87 83 80 77 74 70 66 61 64 84 250 247 246 268 279 273 286 307 307 297 287 280 277 277 288 293 298 308 307 304 301 299 298 297 295 293 292 291 290 288 286
96 88 86 81 75 75 75 68 56 30 6 312 280 258 243 241 242 259 288 306 306 299 272 253 253 272 290 298 307 307 304 303 302 300 298 296 295 293 292 291 289 288 286
111 105 95 87 79 71 66 54 34 338 307 291 277 267 260 255 247 253 273 306 313 303 254 261 261 251 272 290 295 300 298 298 298 297 296 294 294 293 292 290 289 287 285
109 100 94 87 72 60 46 26 340 309 301 282 274 270 259 254 252 253 257 268 290 305 309 283 267 260 273 284 289 292 286 291 295 294 294 294 293 292 290 289 288 286 285
101 101 91 81 63 44 17 351 314 305 308 296 278 274 268 260 256 254 253 257 259 278 291 292 298 295 287 295 297 296 290 293 295 294 292 291 291 290 290 289 287 285 283
102 98 91 77 55 30 358 342 320 312 309 301 296 286 276 271 264 259 257 261 263 267 284 295 297 297 290 289 292 284 283 280 281 288 290 291 290 290 289 288 287 286 284
99 95 88 73 44 12 347 334 318 315 303 298 294 292 287 288 274 270 268 267 269 267 278 292 299 302 297 293 291 286 295 292 284 288 291 290 290 290 290 289 287 286 284
96 88 82 65 26 350 332 317 302 298 295 292 295 296 291 288 284 280 275 276 276 281 280 290 296 297 296 297 298 296 291 286 287 291 292 291 290 290 288 288 287 287 285
98 89 79 55 9 334 316 303 298 296 297 302 302 295 290 286 283 283 286 280 288 293 291 290 293 297 300 300 299 303 303 293 291 292 290 288 288 289 288 288 287 286 285
97 90 69 33 358 330 314 311 300 296 300 301 297 289 288 299 303 304 306 307 304 298 297 298 302 306 306 309 307 306 303 302 293 287 288 287 286 283 282 283 283 282 281
87 64 39 9 347 333 323 326 325 301 289 295 298 294 292 296 302 312 311 307 303 303 306 306 307 305 304 304 304 303 304 304 302 296 290 295 291 287 284 279 281 281 281
71 41 11 349 328 317 328 328 324 324 299 293 292 295 304 308 312 299 298 302 303 304 306 304 301 299 300 302 304 304 303 301 299 302 302 296 294 290 288 284 286 285 284
52 21 344 332 323 322 333 328 324 328 295 285 284 287 292 294 299 305 305 308 303 300 299 300 291 293 297 301 302 303 301 300 296 294 291 292 296 293 292 287 286 283 283
29 350 326 327 324 320 329 325 325 302 289 287 287 290 301 302 306 313 317 313 310 308 309 306 305 306 307 307 307 307 306 306 304 303 295 285 291 298 294 287 281 283 284
3 335 325 321 315 308 319 326 325 302 297 299 295 291 309 314 313 320 321 317 315 312 313 315 313 309 304 302 307 306 303 301 302 303 288 283 296 309 304 277 266 280 285
Height
1514 1515 1515 1515 1515 1514 1514 1513 1512 1511 1510 1509 1507 1505 1504 1502 1500 1498 1497 1495 1494 1493 1492 1490 1489 1488 1487 1486 1485 1483 1482 1481 1480 1479 1479 1478 1477 1477 1476 1476 1475 1475 1474
1513 1514 1514 1514 1513 1513 1512 1511 1510 1508 1507 1506 1504 1502 1500 1498 1496 1494 1493 1492 1491 1490 1488 1487 1486 1485 1484 1482 1480 1479 1477 1476 1475 1474 1473 1472 1471 1471 1470 1469 1469 1468 1468
1511 1512 1512 1512 1512 1511 1510 1509 1507 1505 1504 1502 1501 1499 1497 1494 1493 1491 1490 1489 1488 1487 1486 1484 1483 1481 1480 1478 1476 1474 1472 1470 1469 1468 1466 1465 1464 1463 1462 1461 1461 1460 1460
1510 1510 1511 1511 1510 1509 1508 1507 1504 1502 1500 1498 1497 1496 1494 1492 1489 1488 1487 1486 1485 1484 1483 1481 1479 1477 1475 1473 1471 1468 1466 1464 1462 1461 1459 1458 1456 1455 1454 1453 1452 1451 1451
1508 1509 1509 1509 1509 1508 1506 1504 1501 1498 1496 1495 1494 1492 1490 1488 1486 1485 1484 1483 1482 1481 1480 1477 1475 1472 1470 1467 1465 1462 1460 1457 1455 1453 1451 1449 1448 1446 1445 1444 1443 1443 1442
1505 1507 1508 1507 1507 1505 1503 1501 1498 1495 1493 1491 1490 1489 1486 1484 1483 1482 1482 1481 1480 1478 1476 1473 1470 1467 1464 1461 1458 1455 1452 1450 1448 1446 1443 1441 1439 1438 1437 1435 1434 1434 1433
1504 1505 1506 1505 1505 1503 1501 1498 1496 1493 1491 1489 1487 1484 1483 1482 1480 1479 1479 1478 1476 1474 1471 1468 1465 1462 1458 1455 1451 1448 1445 1442 1440 1438 1435 1433 1431 1429 1428 1427 1425 1425 1424
1502 1503 1503 1503 1502 1500 1498 1496 1494 1492 1490 1487 1485 1481 1479 1478 1477 1477 1476 1473 1470 1468 1465 1462 1459 1455 1451 1447 1444 1440 1437 1434 1432 1429 1427 1425 1423 1421 1419 1417 1416 1415 1414
1500 1501 1501 1500 1499 1498 1496 1494 1492 1490 1489 1487 1485 1484 1481 1477 1472 1467 1468 1465 1463 1460 1457 1454 1451 1448 1444 1440 1436 1432 1429 1426 1423 1421 1419 1416 1414 1412 1410 1408 1407 1405 1404
1498 1498 1498 1498 1497 1495 1493 1492 1490 1488 1487 1486 1484 1482 1481 1478 1473 1463 1459 1458 1456 1452 1449 1446 1443 1440 1437 1433 1428 1424 1421 1418 1415 1413 1410 1408 1405 1402 1400 1398 1396 1395 1394
1495 1496 1496 1496 1494 1493 1491 1490 1488 1487 1485 1484 1481 1479 1477 1474 1470 1464 1454 1448 1445 1443 1441 1438 1435 1432 1429 1425 1421 1417 1413 1410 1407 1404 1401 1398 1395 1392 1390 1388 1386 1384 1382
1493 1494 1494 1493 1492 1491 1489 1488 1487 1485 1483 1481 1479 1476 1473 1470 1466 1461 1452 1443 1436 1432 1431 1429 1427 1425 1421 1418 1414 1409 1405 1401 1398 1394 1391 1388 1385 1382 1379 1376 1374 1372 1370
1491 1491 1491 1491 1490 1488 1487 1485 1484 1483 1481 1478 1475 1473 1470 1466 1463 1458 1451 1441 1431 1423 1420 1418 1417 1415 1413 1409 1405 1401 1396 1393 1389 1385 1381 1378 1374 1371 1367 1364 1362 1359 1358
1488 1489 1489 1488 1487 1485 1484 1483 1481 1479 1477 1474 1471 1468 1465 1462 1458 1454 1449 1441 1427 1416 1414 1411 1407 1405 1403 1400 1396 1392 1388 1384 1380 1375 1371 1367 1363 1359 1356 1352 1350 1347 1345
1486 1486 1486 1485 1484 1482 1481 1480 1478 1476 1473 1470 1467 1464 1460 1457 1453 1449 1445 1441 1434 1418 1404 1400 1399 1397 1395 1391 1388 1384 1380 1375 1371 1366 1362 1357 1352 1348 1344 1341 1337 1334 1332
1484 1484 1483 1482 1481 1479 1478 1476 1474 1472 1469 1466 1462 1458 1455 1451 1447 1443 1439 1435 1430 1422 1407 1395 1393 1389 1386 1383 1380 1376 1371 1366 1362 1357 1352 1347 1342 1337 1332 1328 1325 1322 1319
1481 1481 1480 1479 1478 1476 1474 1472 1470 1467 1464 1461 1457 1453 1449 1445 1440 1436 1432 1428 1423 1417 1405 1391 1388 1383 1378 1373 1369 1365 1361 1356 1350 1346 1341 1336 1331 1326 1320 1316 1312 1308 1305
1478 1478 1477 1476 1474 1473 1470 1468 1465 1462 1459 1454 1450 1446 1442 1437 1433 1429 1424 1419 1414 1409 1402 1390 1381 1376 1370 1366 1360 1355 1351 1346 1341 1335 1330 1324 1319 1313 1308 1304 1299 1296 1292
1475 1474 1473 1472 1471 1469 1466 1463 1460 1457 1453 1448 1444 1439 1435 1430 1425 1421 1416 1411 1406 1402 1396 1387 1377 1370 1363 1358 1352 1346 1341 1335 1329 1324 1318 1312 1307 1302 1296 1292 1287 1283 1279
1472 1471 1470 1469 1467 1465 1462 1459 1455 1451 1447 1443 1438 1434 1429 1424 1418 1413 1409 1405 1400 1394 1387 1380 1371 1364 1358 1351 1345 1337 1329 1323 1317 1313 1306 1301 1296 1290 1284 1279 1274 1269 1265
1469 1468 1467 1465 1463 1460 1457 1453 1449 1445 1441 1436 1432 1428 1423 1418 1413 1409 1405 1399 1393 1387 1380 1373 1365 1358 1351 1344 1337 1330 1321 1313 1306 1303 1295 1288 1283 1276 1269 1264 1259 1255 1251
1466 1465 1463 1461 1459 1456 1452 1448 1444 1439 1435 1430 1425 1421 1416 1412 1407 1403 1398 1393 1388 1382 1375 1368 1360 1352 1344 1338 1330 1323 1315 1306 1294 1292 1287 1277 1273 1264 1258 1252 1247 1242 1238
1463 1462 1460 1457 1454 1451 1447 1443 1439 1435 1430 1425 1420 1415 1410 1406 1401 1395 1388 1384 1380 1375 1371 1364 1354 1345 1338 1332 1325 1316 1309 1300 1291 1285 1279 1266 1261 1253 1247 1240 1235 1230 1226
1460 1458 1456 1453 1450 1446 1442 1438 1433 1429 1424 1420 1415 1410 1404 1398 1394 1388 1383 1377 1371 1366 1361 1354 1348 1340 1333 1326 1320 1312 1303 1293 1283 1277 1273 1261 1251 1243 1234 1227 1222 1217 1213
1457 1455 1452 1449 1445 1441 1437 1433 1428 1423 1418 1414 1410 1405 1400 1394 1388 1384 1378 1370 1362 1356 1351 1346 1341 1334 1326 1319 1313 1305 1296 1287 1275 1266 1264 1256 1243 1234 1222 1214 1209 1205 1201
1454 1452 1449 1445 1441 1436 1432 1427 1423 1418 1413 1408 1403 1399 1394 1389 1383 1378 1371 1364 1356 1349 1343 1336 1330 1324 1318 1311 1306 1300 1291 1283 1273 1261 1254 1249 1238 1232 1215 1202 1200 1196 1190